This demonstration page uses our WeatherBlox Daily Observations layout. Learn more.

Left ArrowRight Arrow

34.74481, -87.66753

Hourly Observations for June 28, 2018

Temp ( °F °C ) Dew Point ( °F °C ) Humidity (%) Winds ( mph kmh ) Pressure ( in mb ) Visibility ( mi km ) Precip ( " mm )
12:53 am 00:53 Clear 78 25.6 74 23.3 87 87 S 5 7 29.98 1015 10 16 0.00 0.00
1:53 am 01:53 Clear 77 25 74 23.3 90 90 S 5 7 29.97 1015 10 16 0.00 0.00
2:53 am 02:53 Clear 77 25 74 23.3 90 90 S 6 9 29.96 1015 10 16 0.00 0.00
3:53 am 03:53 Clear 76 24.4 73 22.8 91 91 Calm 29.97 1015 10 16 0.00 0.00
4:53 am 04:53 Mostly Cloudy 75 23.9 73 22.8 94 94 Calm 29.98 1015 10 16 0.00 0.00
5:53 am 05:53 Mostly Cloudy 75 23.9 72 22.2 90 90 SSE 3 6 29.98 1015 10 16 0.00 0.00
6:53 am 06:53 Sunny 78 25.6 74 23.3 87 87 SSW 5 7 29.97 1015 10 16 0.00 0.00
7:53 am 07:53 Sunny 82 27.8 75 23.9 79 79 WSW 10 17 29.97 1015 10 16 0.00 0.00
8:53 am 08:53 Sunny 85 29.4 75 23.9 72 72 W 16 26 29.97 1015 10 16 0.00 0.00
9:53 am 09:53 Sunny 88 31.1 75 23.9 66 66 W 13 20 29.98 1015 10 16 0.00 0.00
10:53 am 10:53 Sunny 90 32.2 76 24.4 63 63 W 15 24 29.96 1014 10 16 0.00 0.00
11:53 am 11:53 Sunny 91 32.8 76 24.4 61 61 W 17 28 29.97 1015 10 16 0.00 0.00
12:53 pm 12:53 Sunny 89 31.7 76 24.4 65 65 W 15 24 29.95 1014 10 16 0.00 0.00
1:53 pm 13:53 Partly Cloudy 88 31.1 76 24.4 68 68 W 8 13 29.96 1015 10 16 0.00 0.00
2:31 pm 14:31 Cloudy with Nearby Thunderstorms 78 25.6 66 18.9 67 67 E 10 17 30.00 1016 10 16 0.00 0.00
2:41 pm 14:41 Cloudy with Thunderstorms 76 24.4 66 18.9 72 72 NE 13 20 30.00 1016 10 16 0.00 0.00
2:48 pm 14:48 Cloudy with Thunderstorms 75 24 66 19 74 74 E 13 20 30.00 1016 10 16 0.00 0.00
2:53 pm 14:53 Cloudy with Thunderstorms 75 23.9 67 19.4 76 76 E 9 15 30.02 1017 10 16 0.00 0.00
3:30 pm 15:30 Mostly Cloudy 74 23.3 69 20.6 85 85 E 6 9 30.03 1017 10 16 0.00 0.00
3:53 pm 15:53 Partly Cloudy 75 23.9 70 21.1 84 84 SSE 7 11 30.02 1017 10 16 0.00 0.00
4:53 pm 16:53 Sunny 77 25 70 21.1 79 79 S 9 15 29.98 1015 10 16 0.00 0.00
5:53 pm 17:53 Sunny 79 26.1 68 20 69 69 SW 7 11 29.96 1015 10 16 0.00 0.00
6:53 pm 18:53 Sunny 78 25.6 68 20 71 71 SW 6 9 29.96 1015 10 16 0.00 0.00
7:53 pm 19:53 Sunny 77 25 68 20 74 74 SW 5 7 29.96 1015 10 16 0.00 0.00
8:53 pm 20:53 Clear 75 23.9 69 20.6 82 82 Calm 29.96 1015 10 16 0.00 0.00
9:53 pm 21:53 Clear 74 23.3 69 20.6 85 85 Calm 30.00 1016 10 16 0.00 0.00
10:53 pm 22:53 Clear 74 23.3 70 21.1 88 88 Calm 30.01 1016 10 16 0.00 0.00
11:53 pm 23:53 Partly Cloudy 74 23.3 70 21.1 88 88 Calm 30.01 1016 10 16 0.00 0.00

Powered by AerisWeather